Powrót do katalogu

STARLINK-37767

AktywnyŁącznośćVLEO
NORAD 69245·PAYLOAD·🇺🇸 United States

Wystrzelony May 29, 2026 z Cape Canaveral Space Force Station

Loading…

Następne Przeloty (najbliższe 24 godziny)

TLE

ŚwieżeSource: CelesTrak SupGP

Epoka: Sep 15, 2026, 03:04 UTC

1 69245C 26117H   26258.12826389 -.00075328  00000+0 -22257-2 0  2589
2 69245  53.1569 178.7889 0001282  83.1525 262.3546 15.34427025    14

Śledź STARLINK-37767 w czasie rzeczywistym z AllMySat

Download on the App Store